Year,Month,Day,Hour,Minute,Value (Times are PST for temperature in C)
2010,07,07,00,00,15.70
2010,07,07,00,01,15.70
2010,07,07,00,02,15.70
2010,07,07,00,03,15.70
2010,07,07,00,04,15.60
2010,07,07,00,05,15.60
2010,07,07,00,06,15.60
2010,07,07,00,07,15.60
2010,07,07,00,08,15.60
2010,07,07,00,09,15.60
2010,07,07,00,10,15.50
2010,07,07,00,11,15.50
2010,07,07,00,12,15.50
2010,07,07,00,13,15.50
2010,07,07,00,14,15.40
2010,07,07,00,15,15.40
2010,07,07,00,16,15.40
2010,07,07,00,17,15.40
2010,07,07,00,18,15.40
2010,07,07,00,19,15.30
2010,07,07,00,20,15.30
2010,07,07,00,21,15.30
2010,07,07,00,22,15.30
2010,07,07,00,23,15.30
2010,07,07,00,24,15.30
2010,07,07,00,25,15.30
2010,07,07,00,26,15.30
2010,07,07,00,27,15.20
2010,07,07,00,28,15.20
2010,07,07,00,29,15.20
2010,07,07,00,30,15.20
2010,07,07,00,31,15.20
2010,07,07,00,32,15.20
2010,07,07,00,33,15.20
2010,07,07,00,34,15.10
2010,07,07,00,35,15.10
2010,07,07,00,36,15.10
2010,07,07,00,37,15.10
2010,07,07,00,38,15.00
2010,07,07,00,39,15.00
2010,07,07,00,40,15.00
2010,07,07,00,41,15.00
2010,07,07,00,42,15.00
2010,07,07,00,43,15.00
2010,07,07,00,44,15.00
2010,07,07,00,45,15.00
2010,07,07,00,46,15.00
2010,07,07,00,47,15.00
2010,07,07,00,48,15.00
2010,07,07,00,49,15.00
2010,07,07,00,50,15.00
2010,07,07,00,51,15.00
2010,07,07,00,52,15.00
2010,07,07,00,53,15.00
2010,07,07,00,54,15.00
2010,07,07,00,55,15.00
2010,07,07,00,56,15.00
2010,07,07,00,57,15.00
2010,07,07,00,58,15.00
2010,07,07,00,59,15.00
2010,07,07,01,00,15.00
2010,07,07,01,01,15.00
2010,07,07,01,02,14.90
2010,07,07,01,03,14.90
2010,07,07,01,04,14.90
2010,07,07,01,05,14.90
2010,07,07,01,06,14.90
2010,07,07,01,07,14.80
2010,07,07,01,08,14.80
2010,07,07,01,09,14.80
2010,07,07,01,10,14.80
2010,07,07,01,11,14.80
2010,07,07,01,12,14.80
2010,07,07,01,13,14.80
2010,07,07,01,14,14.80
2010,07,07,01,15,14.70
2010,07,07,01,16,14.70
2010,07,07,01,17,14.70
2010,07,07,01,18,14.70
2010,07,07,01,19,14.70
2010,07,07,01,20,14.70
2010,07,07,01,21,14.70
2010,07,07,01,22,14.70
2010,07,07,01,23,14.70
2010,07,07,01,24,14.60
2010,07,07,01,25,14.60
2010,07,07,01,26,14.60
2010,07,07,01,27,14.60
2010,07,07,01,28,14.60
2010,07,07,01,29,14.60
2010,07,07,01,30,14.50
2010,07,07,01,31,14.50
2010,07,07,01,32,14.50
2010,07,07,01,33,14.40
2010,07,07,01,34,14.40
2010,07,07,01,35,14.40
2010,07,07,01,36,14.40
2010,07,07,01,37,14.40
2010,07,07,01,38,14.30
2010,07,07,01,39,14.30
2010,07,07,01,40,14.30
2010,07,07,01,41,14.30
2010,07,07,01,42,14.30
2010,07,07,01,43,14.30
2010,07,07,01,44,14.20
2010,07,07,01,45,14.20
2010,07,07,01,46,14.20
2010,07,07,01,47,14.20
2010,07,07,01,48,14.20
2010,07,07,01,49,14.20
2010,07,07,01,50,14.30
2010,07,07,01,51,14.30
2010,07,07,01,52,14.30
2010,07,07,01,53,14.40
2010,07,07,01,54,14.40
2010,07,07,01,55,14.50
2010,07,07,01,56,14.50
2010,07,07,01,57,14.60
2010,07,07,01,58,14.60
2010,07,07,01,59,14.70
2010,07,07,02,00,14.70
2010,07,07,02,01,14.70
2010,07,07,02,02,14.70
2010,07,07,02,03,14.70
2010,07,07,02,04,14.70
2010,07,07,02,05,14.70
2010,07,07,02,06,14.70
2010,07,07,02,07,14.70
2010,07,07,02,08,14.70
2010,07,07,02,09,14.60
2010,07,07,02,10,14.60
2010,07,07,02,11,14.60
2010,07,07,02,12,14.60
2010,07,07,02,13,14.50
2010,07,07,02,14,14.50
2010,07,07,02,15,14.40
2010,07,07,02,16,14.40
2010,07,07,02,17,14.40
2010,07,07,02,18,14.40
2010,07,07,02,19,14.40
2010,07,07,02,20,14.30
2010,07,07,02,21,14.30
2010,07,07,02,22,14.30
2010,07,07,02,23,14.30
2010,07,07,02,24,14.20
2010,07,07,02,25,14.20
2010,07,07,02,26,14.20
2010,07,07,02,27,14.20
2010,07,07,02,28,14.20
2010,07,07,02,29,14.20
2010,07,07,02,30,14.20
2010,07,07,02,31,14.20
2010,07,07,02,32,14.10
2010,07,07,02,33,14.10
2010,07,07,02,34,14.10
2010,07,07,02,35,14.10
2010,07,07,02,36,14.10
2010,07,07,02,37,14.10
2010,07,07,02,38,14.10
2010,07,07,02,39,14.00
2010,07,07,02,40,14.00
2010,07,07,02,41,14.00
2010,07,07,02,42,14.00
2010,07,07,02,43,14.00
2010,07,07,02,44,14.00
2010,07,07,02,45,13.90
2010,07,07,02,46,13.90
2010,07,07,02,47,13.90
2010,07,07,02,48,13.90
2010,07,07,02,49,13.90
2010,07,07,02,50,13.90
2010,07,07,02,51,13.90
2010,07,07,02,52,13.90
2010,07,07,02,53,13.90
2010,07,07,02,54,13.90
2010,07,07,02,55,13.90
2010,07,07,02,56,13.90
2010,07,07,02,57,13.80
2010,07,07,02,58,13.80
2010,07,07,02,59,13.80
2010,07,07,03,00,13.80
2010,07,07,03,01,13.80
2010,07,07,03,02,13.80
2010,07,07,03,03,13.80
2010,07,07,03,04,13.80
2010,07,07,03,05,13.80
2010,07,07,03,06,13.80
2010,07,07,03,07,13.80
2010,07,07,03,08,13.80
2010,07,07,03,09,13.80
2010,07,07,03,10,13.80
2010,07,07,03,11,13.80
2010,07,07,03,12,13.70
2010,07,07,03,13,13.70
2010,07,07,03,14,13.70
2010,07,07,03,15,13.70
2010,07,07,03,16,13.70
2010,07,07,03,17,13.70
2010,07,07,03,18,13.70
2010,07,07,03,19,13.70
2010,07,07,03,20,13.70
2010,07,07,03,21,13.70
2010,07,07,03,22,13.70
2010,07,07,03,23,13.70
2010,07,07,03,24,13.70
2010,07,07,03,25,13.70
2010,07,07,03,26,13.70
2010,07,07,03,27,13.70
2010,07,07,03,28,13.70
2010,07,07,03,29,13.70
2010,07,07,03,30,13.70
2010,07,07,03,31,13.70
2010,07,07,03,32,13.70
2010,07,07,03,33,13.70
2010,07,07,03,34,13.70
2010,07,07,03,35,13.70
2010,07,07,03,36,13.70
2010,07,07,03,37,13.70
2010,07,07,03,38,13.70
2010,07,07,03,39,13.70
2010,07,07,03,40,13.70
2010,07,07,03,41,13.70
2010,07,07,03,42,13.70
2010,07,07,03,43,13.70
2010,07,07,03,44,13.70
2010,07,07,03,45,13.70
2010,07,07,03,46,13.70
2010,07,07,03,47,13.70
2010,07,07,03,48,13.70
2010,07,07,03,49,13.70
2010,07,07,03,50,13.70
2010,07,07,03,51,13.70
2010,07,07,03,52,13.70
2010,07,07,03,53,13.60
2010,07,07,03,54,13.60
2010,07,07,03,55,13.60
2010,07,07,03,56,13.60
2010,07,07,03,57,13.60
2010,07,07,03,58,13.60
2010,07,07,03,59,13.60
2010,07,07,04,00,13.60
2010,07,07,04,01,13.60
2010,07,07,04,02,13.60
2010,07,07,04,03,13.60
2010,07,07,04,04,13.60
2010,07,07,04,05,13.60
2010,07,07,04,06,13.60
2010,07,07,04,07,13.60
2010,07,07,04,08,13.60
2010,07,07,04,09,13.60
2010,07,07,04,10,13.50
2010,07,07,04,11,13.50
2010,07,07,04,12,13.50
2010,07,07,04,13,13.50
2010,07,07,04,14,13.50
2010,07,07,04,15,13.40
2010,07,07,04,16,13.40
2010,07,07,04,17,13.40
2010,07,07,04,18,13.40
2010,07,07,04,19,13.40
2010,07,07,04,20,13.40
2010,07,07,04,21,13.40
2010,07,07,04,22,13.40
2010,07,07,04,23,13.40
2010,07,07,04,24,13.30
2010,07,07,04,25,13.30
2010,07,07,04,26,13.30
2010,07,07,04,27,13.30
2010,07,07,04,28,13.30
2010,07,07,04,29,13.30
2010,07,07,04,30,13.30
2010,07,07,04,31,13.30
2010,07,07,04,32,13.30
2010,07,07,04,33,13.30
2010,07,07,04,34,13.30
2010,07,07,04,35,13.30
2010,07,07,04,36,13.30
2010,07,07,04,37,13.30
2010,07,07,04,38,13.30
2010,07,07,04,39,13.30
2010,07,07,04,40,13.30
2010,07,07,04,41,13.30
2010,07,07,04,42,13.20
2010,07,07,04,43,13.20
2010,07,07,04,44,13.20
2010,07,07,04,45,13.20
2010,07,07,04,46,13.20
2010,07,07,04,47,13.20
2010,07,07,04,48,13.20
2010,07,07,04,49,13.20
2010,07,07,04,50,13.20
2010,07,07,04,51,13.20
2010,07,07,04,52,13.20
2010,07,07,04,53,13.20
2010,07,07,04,54,13.30
2010,07,07,04,55,13.30
2010,07,07,04,56,13.30
2010,07,07,04,57,13.40
2010,07,07,04,58,13.40
2010,07,07,04,59,13.50
2010,07,07,05,00,13.60
2010,07,07,05,01,13.60
2010,07,07,05,02,13.70
2010,07,07,05,03,13.70
2010,07,07,05,04,13.80
2010,07,07,05,05,13.80
2010,07,07,05,06,13.80
2010,07,07,05,07,13.80
2010,07,07,05,08,13.80
2010,07,07,05,09,13.90
2010,07,07,05,10,13.90
2010,07,07,05,11,13.90
2010,07,07,05,12,13.90
2010,07,07,05,13,13.90
2010,07,07,05,14,13.80
2010,07,07,05,15,13.80
2010,07,07,05,16,13.80
2010,07,07,05,17,13.80
2010,07,07,05,18,13.70
2010,07,07,05,19,13.70
2010,07,07,05,20,13.60
2010,07,07,05,21,13.60
2010,07,07,05,22,13.50
2010,07,07,05,23,13.50
2010,07,07,05,24,13.40
2010,07,07,05,25,13.40
2010,07,07,05,26,13.40
2010,07,07,05,27,13.30
2010,07,07,05,28,13.30
2010,07,07,05,29,13.30
2010,07,07,05,30,13.30
2010,07,07,05,31,13.40
2010,07,07,05,32,13.40
2010,07,07,05,33,13.50
2010,07,07,05,34,13.50
2010,07,07,05,35,13.50
2010,07,07,05,36,13.60
2010,07,07,05,37,13.60
2010,07,07,05,38,13.60
2010,07,07,05,39,13.60
2010,07,07,05,40,13.60
2010,07,07,05,41,13.60
2010,07,07,05,42,13.60
2010,07,07,05,43,13.60
2010,07,07,05,44,13.60
2010,07,07,05,45,13.70
2010,07,07,05,46,13.80
2010,07,07,05,47,13.80
2010,07,07,05,48,13.90
2010,07,07,05,49,14.00
2010,07,07,05,50,14.00
2010,07,07,05,51,14.10
2010,07,07,05,52,14.20
2010,07,07,05,53,14.30
2010,07,07,05,54,14.30
2010,07,07,05,55,14.50
2010,07,07,05,56,14.60
2010,07,07,05,57,14.70
2010,07,07,05,58,14.80
2010,07,07,05,59,14.80
2010,07,07,06,00,14.90
2010,07,07,06,01,14.90
2010,07,07,06,02,15.00
2010,07,07,06,03,15.00
2010,07,07,06,04,15.00
2010,07,07,06,05,15.00
2010,07,07,06,06,15.00
2010,07,07,06,07,15.00
2010,07,07,06,08,15.10
2010,07,07,06,09,15.10
2010,07,07,06,10,15.20
2010,07,07,06,11,15.20
2010,07,07,06,12,15.20
2010,07,07,06,13,15.30
2010,07,07,06,14,15.30
2010,07,07,06,15,15.30
2010,07,07,06,16,15.30
2010,07,07,06,17,15.30
2010,07,07,06,18,15.40
2010,07,07,06,19,15.40
2010,07,07,06,20,15.40
2010,07,07,06,21,15.40
2010,07,07,06,22,15.40
2010,07,07,06,23,15.40
2010,07,07,06,24,15.40
2010,07,07,06,25,15.50
2010,07,07,06,26,15.50
2010,07,07,06,27,15.60
2010,07,07,06,28,15.60
2010,07,07,06,29,15.60
2010,07,07,06,30,15.60
2010,07,07,06,31,15.70
2010,07,07,06,32,15.70
2010,07,07,06,33,15.70
2010,07,07,06,34,15.80
2010,07,07,06,35,15.80
2010,07,07,06,36,15.80
2010,07,07,06,37,15.90
2010,07,07,06,38,15.90
2010,07,07,06,39,15.90
2010,07,07,06,40,15.90
2010,07,07,06,41,15.90
2010,07,07,06,42,15.90
2010,07,07,06,43,15.90
2010,07,07,06,44,16.00
2010,07,07,06,45,16.00
2010,07,07,06,46,16.00
2010,07,07,06,47,16.10
2010,07,07,06,48,16.10
2010,07,07,06,49,16.10
2010,07,07,06,50,16.10
2010,07,07,06,51,16.10
2010,07,07,06,52,16.20
2010,07,07,06,53,16.20
2010,07,07,06,54,16.20
2010,07,07,06,55,16.20
2010,07,07,06,56,16.20
2010,07,07,06,57,16.20
2010,07,07,06,58,16.20
2010,07,07,06,59,16.30
2010,07,07,07,00,16.30
2010,07,07,07,01,16.30
2010,07,07,07,02,16.40
2010,07,07,07,03,16.50
2010,07,07,07,04,16.60
2010,07,07,07,05,16.60
2010,07,07,07,06,16.60
2010,07,07,07,07,16.70
2010,07,07,07,08,16.80
2010,07,07,07,09,16.80
2010,07,07,07,10,16.90
2010,07,07,07,11,17.00
2010,07,07,07,12,17.10
2010,07,07,07,13,17.20
2010,07,07,07,14,17.20
2010,07,07,07,15,17.30
2010,07,07,07,16,17.40
2010,07,07,07,17,17.40
2010,07,07,07,18,17.50
2010,07,07,07,19,17.50
2010,07,07,07,20,17.60
2010,07,07,07,21,17.60
2010,07,07,07,22,17.60
2010,07,07,07,23,17.60
2010,07,07,07,24,17.70
2010,07,07,07,25,17.70
2010,07,07,07,26,17.70
2010,07,07,07,27,17.80
2010,07,07,07,28,17.80
2010,07,07,07,29,17.80
2010,07,07,07,30,17.90
2010,07,07,07,31,17.90
2010,07,07,07,32,18.00
2010,07,07,07,33,18.00
2010,07,07,07,34,18.10
2010,07,07,07,35,18.10
2010,07,07,07,36,18.10
2010,07,07,07,37,18.10
2010,07,07,07,38,18.10
2010,07,07,07,39,18.10
2010,07,07,07,40,18.00
2010,07,07,07,41,18.00
2010,07,07,07,42,18.00
2010,07,07,07,43,17.90
2010,07,07,07,44,17.90
2010,07,07,07,45,17.90
2010,07,07,07,46,17.90
2010,07,07,07,47,17.90
2010,07,07,07,48,17.90
2010,07,07,07,49,17.90
2010,07,07,07,50,18.00
2010,07,07,07,51,18.00
2010,07,07,07,52,18.10
2010,07,07,07,53,18.20
2010,07,07,07,54,18.20
2010,07,07,07,55,18.30
2010,07,07,07,56,18.40
2010,07,07,07,57,18.50
2010,07,07,07,58,18.60
2010,07,07,07,59,18.60
2010,07,07,08,00,18.70
2010,07,07,08,01,18.80
2010,07,07,08,02,18.80
2010,07,07,08,03,18.90
2010,07,07,08,04,19.00
2010,07,07,08,05,19.10
2010,07,07,08,06,19.30
2010,07,07,08,07,19.30
2010,07,07,08,08,19.40
2010,07,07,08,09,19.50
2010,07,07,08,10,19.60
2010,07,07,08,11,19.70
2010,07,07,08,12,19.80
2010,07,07,08,13,19.90
2010,07,07,08,14,20.00
2010,07,07,08,15,20.00
2010,07,07,08,16,20.10
2010,07,07,08,17,20.10
2010,07,07,08,18,20.20
2010,07,07,08,19,20.20
2010,07,07,08,20,20.30
2010,07,07,08,21,20.40
2010,07,07,08,22,20.40
2010,07,07,08,23,20.50
2010,07,07,08,24,20.50
2010,07,07,08,25,20.60
2010,07,07,08,26,20.60
2010,07,07,08,27,20.60
2010,07,07,08,28,20.70
2010,07,07,08,29,20.70
2010,07,07,08,30,20.70
2010,07,07,08,31,20.80
2010,07,07,08,32,20.80
2010,07,07,08,33,20.80
2010,07,07,08,34,20.90
2010,07,07,08,35,21.00
2010,07,07,08,36,21.00
2010,07,07,08,37,21.10
2010,07,07,08,38,21.20
2010,07,07,08,39,21.20
2010,07,07,08,40,21.30
2010,07,07,08,41,21.30
2010,07,07,08,42,21.40
2010,07,07,08,43,21.40
2010,07,07,08,44,21.40
2010,07,07,08,45,21.40
2010,07,07,08,46,21.40
2010,07,07,08,47,21.40
2010,07,07,08,48,21.40
2010,07,07,08,49,21.40
2010,07,07,08,50,21.40
2010,07,07,08,51,21.30
2010,07,07,08,52,21.30
2010,07,07,08,53,21.30
2010,07,07,08,54,21.40
2010,07,07,08,55,21.40
2010,07,07,08,56,21.40
2010,07,07,08,57,21.30
2010,07,07,08,58,21.20
2010,07,07,08,59,21.10
2010,07,07,09,00,21.10
2010,07,07,09,01,21.10
2010,07,07,09,02,21.00
2010,07,07,09,03,21.00
2010,07,07,09,04,21.10
2010,07,07,09,05,21.10
2010,07,07,09,06,21.10
2010,07,07,09,07,21.10
2010,07,07,09,08,21.10
2010,07,07,09,09,21.10
2010,07,07,09,10,21.10
2010,07,07,09,11,21.00
2010,07,07,09,12,20.90
2010,07,07,09,13,20.80
2010,07,07,09,14,20.80
2010,07,07,09,15,20.90
2010,07,07,09,16,20.90
2010,07,07,09,17,21.00
2010,07,07,09,18,21.00
2010,07,07,09,19,21.10
2010,07,07,09,20,21.10
2010,07,07,09,21,21.10
2010,07,07,09,22,21.00
2010,07,07,09,23,20.90
2010,07,07,09,24,20.80
2010,07,07,09,25,20.80
2010,07,07,09,26,20.80
2010,07,07,09,27,20.80
2010,07,07,09,28,20.80
2010,07,07,09,29,20.70
2010,07,07,09,30,20.70
2010,07,07,09,31,20.70
2010,07,07,09,32,20.70
2010,07,07,09,33,20.80
2010,07,07,09,34,20.90
2010,07,07,09,35,20.90
2010,07,07,09,36,21.00
2010,07,07,09,37,21.10
2010,07,07,09,38,21.20
2010,07,07,09,39,21.20
2010,07,07,09,40,21.20
2010,07,07,09,41,21.30
2010,07,07,09,42,21.30
2010,07,07,09,43,21.40
2010,07,07,09,44,21.40
2010,07,07,09,45,21.40
2010,07,07,09,46,21.40
2010,07,07,09,47,21.50
2010,07,07,09,48,21.60
2010,07,07,09,49,21.60
2010,07,07,09,50,21.60
2010,07,07,09,51,21.70
2010,07,07,09,52,21.70
2010,07,07,09,53,21.80
2010,07,07,09,54,21.80
2010,07,07,09,55,21.90
2010,07,07,09,56,22.00
2010,07,07,09,57,22.10
2010,07,07,09,58,22.10
2010,07,07,09,59,22.10
2010,07,07,10,00,22.10
2010,07,07,10,01,22.10
2010,07,07,10,02,22.20
2010,07,07,10,03,22.20
2010,07,07,10,04,22.20
2010,07,07,10,05,22.20
2010,07,07,10,06,22.30
2010,07,07,10,07,22.30
2010,07,07,10,08,22.30
2010,07,07,10,09,22.40
2010,07,07,10,10,22.50
2010,07,07,10,11,22.60
2010,07,07,10,12,22.60
2010,07,07,10,13,22.70
2010,07,07,10,14,22.70
2010,07,07,10,15,22.70
2010,07,07,10,16,22.70
2010,07,07,10,17,22.60
2010,07,07,10,18,22.60
2010,07,07,10,19,22.70
2010,07,07,10,20,22.70
2010,07,07,10,21,22.80
2010,07,07,10,22,22.80
2010,07,07,10,23,22.90
2010,07,07,10,24,22.90
2010,07,07,10,25,23.00
2010,07,07,10,26,23.00
2010,07,07,10,27,23.10
2010,07,07,10,28,23.10
2010,07,07,10,29,23.20
2010,07,07,10,30,23.20
2010,07,07,10,31,23.20
2010,07,07,10,32,23.10
2010,07,07,10,33,23.00
2010,07,07,10,34,22.80
2010,07,07,10,35,22.60
2010,07,07,10,36,22.50
2010,07,07,10,37,22.40
2010,07,07,10,38,22.50
2010,07,07,10,39,22.40
2010,07,07,10,40,22.40
2010,07,07,10,41,22.40
2010,07,07,10,42,22.40
2010,07,07,10,43,22.30
2010,07,07,10,44,22.30
2010,07,07,10,45,22.30
2010,07,07,10,46,22.30
2010,07,07,10,47,22.40
2010,07,07,10,48,22.50
2010,07,07,10,49,22.60
2010,07,07,10,50,22.60
2010,07,07,10,51,22.70
2010,07,07,10,52,22.70
2010,07,07,10,53,22.70
2010,07,07,10,54,22.70
2010,07,07,10,55,22.80
2010,07,07,10,56,22.80
2010,07,07,10,57,22.80
2010,07,07,10,58,22.80
2010,07,07,10,59,22.80
2010,07,07,11,00,22.70
2010,07,07,11,01,22.60
2010,07,07,11,02,22.50
2010,07,07,11,03,22.30
2010,07,07,11,04,22.20
2010,07,07,11,05,22.10
2010,07,07,11,06,22.00
2010,07,07,11,07,21.90
2010,07,07,11,08,21.80
2010,07,07,11,09,21.70
2010,07,07,11,10,21.60
2010,07,07,11,11,21.50
2010,07,07,11,12,21.50
2010,07,07,11,13,21.50
2010,07,07,11,14,21.50
2010,07,07,11,15,21.60
2010,07,07,11,16,21.70
2010,07,07,11,17,21.70
2010,07,07,11,18,21.80
2010,07,07,11,19,21.90
2010,07,07,11,20,22.10
2010,07,07,11,21,22.20
2010,07,07,11,22,22.20
2010,07,07,11,23,22.30
2010,07,07,11,24,22.30
2010,07,07,11,25,22.30
2010,07,07,11,26,22.40
2010,07,07,11,27,22.30
2010,07,07,11,28,22.40
2010,07,07,11,29,22.40
2010,07,07,11,30,22.40
2010,07,07,11,31,22.40
2010,07,07,11,32,22.50
2010,07,07,11,33,22.50
2010,07,07,11,34,22.60
2010,07,07,11,35,22.70
2010,07,07,11,36,22.70
2010,07,07,11,37,22.70
2010,07,07,11,38,22.70
2010,07,07,11,39,22.60
2010,07,07,11,40,22.60
2010,07,07,11,41,22.60
2010,07,07,11,42,22.70
2010,07,07,11,43,22.80
2010,07,07,11,44,22.80
2010,07,07,11,45,22.90
2010,07,07,11,46,23.00
2010,07,07,11,47,23.10
2010,07,07,11,48,23.20
2010,07,07,11,49,23.20
2010,07,07,11,50,23.30
2010,07,07,11,51,23.30
2010,07,07,11,52,23.30
2010,07,07,11,53,23.20
2010,07,07,11,54,23.10
2010,07,07,11,55,23.00
2010,07,07,11,56,22.90
2010,07,07,11,57,22.80
2010,07,07,11,58,22.80
2010,07,07,11,59,22.80
2010,07,07,12,00,22.70
2010,07,07,12,01,22.60
2010,07,07,12,02,22.50
2010,07,07,12,03,22.40
2010,07,07,12,04,22.30
2010,07,07,12,05,22.30
2010,07,07,12,06,22.30
2010,07,07,12,07,22.30
2010,07,07,12,08,22.20
2010,07,07,12,09,22.20
2010,07,07,12,10,22.20
2010,07,07,12,11,22.10
2010,07,07,12,12,22.00
2010,07,07,12,13,21.90
2010,07,07,12,14,21.90
2010,07,07,12,15,21.90
2010,07,07,12,16,22.00
2010,07,07,12,17,22.10
2010,07,07,12,18,22.20
2010,07,07,12,19,22.20
2010,07,07,12,20,22.20
2010,07,07,12,21,22.20
2010,07,07,12,22,22.20
2010,07,07,12,23,22.00
2010,07,07,12,24,21.90
2010,07,07,12,25,21.90
2010,07,07,12,26,21.80
2010,07,07,12,27,21.90
2010,07,07,12,28,22.00
2010,07,07,12,29,22.20
2010,07,07,12,30,22.30
2010,07,07,12,31,22.40
2010,07,07,12,32,22.50
2010,07,07,12,33,22.60
2010,07,07,12,34,22.70
2010,07,07,12,35,22.70
2010,07,07,12,36,22.70
2010,07,07,12,37,22.70
2010,07,07,12,38,22.70
2010,07,07,12,39,22.80
2010,07,07,12,40,22.90
2010,07,07,12,41,22.90
2010,07,07,12,42,22.80
2010,07,07,12,43,22.90
2010,07,07,12,44,23.00
2010,07,07,12,45,23.00
2010,07,07,12,46,23.00
2010,07,07,12,47,23.10
2010,07,07,12,48,23.20
2010,07,07,12,49,23.20
2010,07,07,12,50,23.20
2010,07,07,12,51,23.30
2010,07,07,12,52,23.30
2010,07,07,12,53,23.30
2010,07,07,12,54,23.40
2010,07,07,12,55,23.50
2010,07,07,12,56,23.50
2010,07,07,12,57,23.60
2010,07,07,12,58,23.70
2010,07,07,12,59,23.70
2010,07,07,13,00,23.80
2010,07,07,13,01,23.90
2010,07,07,13,02,23.90
2010,07,07,13,03,24.00
2010,07,07,13,04,24.10
2010,07,07,13,05,24.20
2010,07,07,13,06,24.40
2010,07,07,13,07,24.50
2010,07,07,13,08,24.60
2010,07,07,13,09,24.70
2010,07,07,13,10,24.90
2010,07,07,13,11,25.00
2010,07,07,13,12,25.10
2010,07,07,13,13,25.10
2010,07,07,13,14,25.10
2010,07,07,13,15,25.20
2010,07,07,13,16,25.30
2010,07,07,13,17,25.40
2010,07,07,13,18,25.40
2010,07,07,13,19,25.40
2010,07,07,13,20,25.40
2010,07,07,13,21,25.30
2010,07,07,13,22,25.20
2010,07,07,13,23,25.10
2010,07,07,13,24,25.10
2010,07,07,13,25,25.10
2010,07,07,13,26,25.10
2010,07,07,13,27,25.10
2010,07,07,13,28,25.10
2010,07,07,13,29,25.10
2010,07,07,13,30,25.00
2010,07,07,13,31,25.00
2010,07,07,13,32,25.00
2010,07,07,13,33,24.90
2010,07,07,13,34,24.80
2010,07,07,13,35,24.80
2010,07,07,13,36,24.70
2010,07,07,13,37,24.40
2010,07,07,13,38,24.20
2010,07,07,13,39,24.00
2010,07,07,13,40,23.90
2010,07,07,13,41,23.80
2010,07,07,13,42,23.70
2010,07,07,13,43,23.70
2010,07,07,13,44,23.80
2010,07,07,13,45,23.80
2010,07,07,13,46,23.90
2010,07,07,13,47,24.10
2010,07,07,13,48,24.10
2010,07,07,13,49,24.10
2010,07,07,13,50,24.10
2010,07,07,13,51,24.10
2010,07,07,13,52,24.20
2010,07,07,13,53,24.30
2010,07,07,13,54,24.40
2010,07,07,13,55,24.60
2010,07,07,13,56,24.70
2010,07,07,13,57,24.70
2010,07,07,13,58,24.70
2010,07,07,13,59,24.70
2010,07,07,14,00,24.70
2010,07,07,14,01,24.60
2010,07,07,14,02,24.70
2010,07,07,14,03,24.70
2010,07,07,14,04,24.80
2010,07,07,14,05,24.80
2010,07,07,14,06,24.90
2010,07,07,14,07,25.00
2010,07,07,14,08,25.00
2010,07,07,14,09,25.00
2010,07,07,14,10,24.90
2010,07,07,14,11,24.70
2010,07,07,14,12,24.70
2010,07,07,14,13,24.60
2010,07,07,14,14,24.60
2010,07,07,14,15,24.60
2010,07,07,14,16,24.60
2010,07,07,14,17,24.70
2010,07,07,14,18,24.70
2010,07,07,14,19,24.70
2010,07,07,14,20,24.60
2010,07,07,14,21,24.60
2010,07,07,14,22,24.60
2010,07,07,14,23,24.60
2010,07,07,14,24,24.60
2010,07,07,14,25,24.50
2010,07,07,14,26,24.50
2010,07,07,14,27,24.50
2010,07,07,14,28,24.50
2010,07,07,14,29,24.50
2010,07,07,14,30,24.60
2010,07,07,14,31,24.60
2010,07,07,14,32,24.70
2010,07,07,14,33,24.70
2010,07,07,14,34,24.90
2010,07,07,14,35,25.00
2010,07,07,14,36,25.10
2010,07,07,14,37,25.30
2010,07,07,14,38,25.40
2010,07,07,14,39,25.50
2010,07,07,14,40,25.70
2010,07,07,14,41,25.80
2010,07,07,14,42,25.80
2010,07,07,14,43,25.90
2010,07,07,14,44,25.90
2010,07,07,14,45,25.90
2010,07,07,14,46,25.90
2010,07,07,14,47,25.90
2010,07,07,14,48,25.90
2010,07,07,14,49,26.00
2010,07,07,14,50,26.10
2010,07,07,14,51,26.30
2010,07,07,14,52,26.40
2010,07,07,14,53,26.50
2010,07,07,14,54,26.50
2010,07,07,14,55,26.60
2010,07,07,14,56,26.50
2010,07,07,14,57,26.50
2010,07,07,14,58,26.50
2010,07,07,14,59,26.50
2010,07,07,15,00,26.50
2010,07,07,15,01,26.50
2010,07,07,15,02,26.50
2010,07,07,15,03,26.60
2010,07,07,15,04,26.60
2010,07,07,15,05,26.60
2010,07,07,15,06,26.60
2010,07,07,15,07,26.60
2010,07,07,15,08,26.50
2010,07,07,15,09,26.40
2010,07,07,15,10,26.40
2010,07,07,15,11,26.50
2010,07,07,15,12,26.50
2010,07,07,15,13,26.50
2010,07,07,15,14,26.70
2010,07,07,15,15,26.80
2010,07,07,15,16,26.90
2010,07,07,15,17,27.20
2010,07,07,15,18,27.30
2010,07,07,15,19,27.50
2010,07,07,15,20,27.60
2010,07,07,15,21,27.70
2010,07,07,15,22,27.90
2010,07,07,15,23,28.00
2010,07,07,15,24,28.20
2010,07,07,15,25,28.40
2010,07,07,15,26,28.50
2010,07,07,15,27,28.60
2010,07,07,15,28,28.70
2010,07,07,15,29,28.60
2010,07,07,15,30,28.50
2010,07,07,15,31,28.40
2010,07,07,15,32,28.30
2010,07,07,15,33,28.20
2010,07,07,15,34,28.20
2010,07,07,15,35,28.30
2010,07,07,15,36,28.40
2010,07,07,15,37,28.40
2010,07,07,15,38,28.60
2010,07,07,15,39,28.70
2010,07,07,15,40,28.80
2010,07,07,15,41,28.90
2010,07,07,15,42,28.90
2010,07,07,15,43,29.00
2010,07,07,15,44,29.10
2010,07,07,15,45,29.20
2010,07,07,15,46,29.30
2010,07,07,15,47,29.30
2010,07,07,15,48,29.30
2010,07,07,15,49,29.40
2010,07,07,15,50,29.30
2010,07,07,15,51,29.30
2010,07,07,15,52,29.20
2010,07,07,15,53,29.10
2010,07,07,15,54,29.00
2010,07,07,15,55,28.90
2010,07,07,15,56,28.80
2010,07,07,15,57,28.80
2010,07,07,15,58,28.70
2010,07,07,15,59,28.70
2010,07,07,16,00,28.70
2010,07,07,16,01,28.70
2010,07,07,16,02,28.70
2010,07,07,16,03,28.70
2010,07,07,16,04,28.80
2010,07,07,16,05,28.80
2010,07,07,16,06,28.90
2010,07,07,16,07,29.00
2010,07,07,16,08,29.10
2010,07,07,16,09,29.20
2010,07,07,16,10,29.20
2010,07,07,16,11,29.10
2010,07,07,16,12,29.10
2010,07,07,16,13,29.10
2010,07,07,16,14,29.10
2010,07,07,16,15,29.10
2010,07,07,16,16,29.00
2010,07,07,16,17,28.90
2010,07,07,16,18,28.90
2010,07,07,16,19,28.90
2010,07,07,16,20,28.90
2010,07,07,16,21,28.80
2010,07,07,16,22,28.60
2010,07,07,16,23,28.40
2010,07,07,16,24,28.30
2010,07,07,16,25,28.10
2010,07,07,16,26,27.90
2010,07,07,16,27,27.80
2010,07,07,16,28,27.70
2010,07,07,16,29,27.60
2010,07,07,16,30,27.50
2010,07,07,16,31,27.50
2010,07,07,16,32,27.40
2010,07,07,16,33,27.50
2010,07,07,16,34,27.60
2010,07,07,16,35,27.70
2010,07,07,16,36,27.80
2010,07,07,16,37,28.00
2010,07,07,16,38,28.20
2010,07,07,16,39,28.40
2010,07,07,16,40,28.50
2010,07,07,16,41,28.70
2010,07,07,16,42,28.80
2010,07,07,16,43,29.00
2010,07,07,16,44,29.10
2010,07,07,16,45,29.20
2010,07,07,16,46,29.30
2010,07,07,16,47,29.40
2010,07,07,16,48,29.50
2010,07,07,16,49,29.60
2010,07,07,16,50,29.60
2010,07,07,16,51,29.40
2010,07,07,16,52,29.00
2010,07,07,16,53,28.80
2010,07,07,16,54,28.60
2010,07,07,16,55,28.50
2010,07,07,16,56,28.30
2010,07,07,16,57,28.20
2010,07,07,16,58,28.20
2010,07,07,16,59,28.20
2010,07,07,17,00,28.30
2010,07,07,17,01,28.30
2010,07,07,17,02,28.30
2010,07,07,17,03,28.20
2010,07,07,17,04,28.30
2010,07,07,17,05,28.30
2010,07,07,17,06,28.30
2010,07,07,17,07,28.30
2010,07,07,17,08,28.20
2010,07,07,17,09,28.10
2010,07,07,17,10,28.00
2010,07,07,17,11,28.00
2010,07,07,17,12,27.90
2010,07,07,17,13,27.90
2010,07,07,17,14,27.90
2010,07,07,17,15,27.90
2010,07,07,17,16,27.90
2010,07,07,17,17,28.00
2010,07,07,17,18,28.00
2010,07,07,17,19,28.10